Weather History for KASW - March, 2014

Change the Weather History Date:

Monday, March 17, 2014

  Actual Average Record
Temperature  
Mean Temperature 22 °F -  
Max Temperature 33 °F 46 °F 75 °F (2012)
Min Temperature 12 °F 26 °F 11 °F (1967)
Degree Days  
Heating Degree Days 42    
Moisture  
Dew Point 13 °F    
Average Humidity 65    
Maximum Humidity 85    
Minimum Humidity 48    
Precipitation  
Precipitation 0.00 in - - ()
Sea Level Pressure  
Sea Level Pressure 29.96 in    
Wind  
Wind Speed 10 mph (East)    
Max Wind Speed 14 mph    
Max Gust Speed 17 mph    
Visibility 10 miles    
Events      
Averages and records for this station are not official NWS values.
T = Trace of Precipitation, MM = Missing Value Source: NWS Daily Summary

Daily Weather History Graph

Daily Weather History Graph

Search for Another Location

Airport or City:

Trip Planner

Search our weather history database for the weather conditions in past years. The results will help you decide how hot, cold, wet, or windy it might be!

Date:

Astronomy

Mar. 17, 2014 Rise Set
Actual Time 7:51 AM EDT 7:52 PM EDT
Civil Twilight 7:24 AM EDT 8:19 PM EDT
Nautical Twilight 6:52 AM EDT 8:51 PM EDT
Astronomical Twilight 6:19 AM EDT 9:24 PM EDT
Moon 9:09 PM EDT (3/17) 8:06 AM EDT (3/17)
Length of Visible Light 12h 55m
Length of Day
12h 00m
Full, 99% of the Moon is Illuminated
Mar 17
Full
Mar 23
Last Quarter
Mar 30
New
Apr 7
First Quarter
Apr 15
Full

Hourly Weather History & Observations

Time (EDT) Temp. Windchill Dew Point Humidity Pressure Visibility Wind Dir Wind Speed Gust Speed Precip Events Conditions
12:15 AM 17.6 °F 5.7 °F 6.8 °F 63% 30.12 in 10.0 mi East 10.4 mph - N/A   Clear
12:35 AM 17.6 °F 5.7 °F 6.8 °F 63% 30.12 in 10.0 mi East 10.4 mph - N/A   Clear
12:55 AM 17.6 °F 4.3 °F 5.0 °F 58% 30.11 in 10.0 mi ENE 12.7 mph - N/A   Clear
1:15 AM 17.6 °F 6.4 °F 5.0 °F 58% 30.11 in 10.0 mi ENE 9.2 mph - N/A   Clear
1:35 AM 17.6 °F 6.4 °F 5.0 °F 58% 30.09 in 10.0 mi ENE 9.2 mph - N/A   Clear
2:15 AM 15.8 °F 4.2 °F 6.8 °F 68% 30.09 in 10.0 mi NE 9.2 mph - N/A   Clear
2:35 AM 15.8 °F 2.7 °F 6.8 °F 68% 30.10 in 10.0 mi NE 11.5 mph - N/A   Clear
2:55 AM 15.8 °F 4.2 °F 6.8 °F 68% 30.09 in 10.0 mi ENE 9.2 mph - N/A   Clear
3:15 AM 15.8 °F 2.7 °F 5.0 °F 62% 30.06 in 10.0 mi ENE 11.5 mph - N/A   Clear
3:35 AM 14.0 °F 1.2 °F 5.0 °F 67% 30.06 in 10.0 mi NE 10.4 mph - N/A   Clear
3:55 AM 14.0 °F 2.0 °F 5.0 °F 67% 30.06 in 10.0 mi ENE 9.2 mph - N/A   Clear
4:15 AM 14.0 °F 2.9 °F 5.0 °F 67% 30.05 in 10.0 mi ENE 8.1 mph - N/A   Clear
4:35 AM 14.0 °F 2.9 °F 5.0 °F 67% 30.04 in 10.0 mi ENE 8.1 mph - N/A   Clear
4:55 AM 14.0 °F 2.9 °F 5.0 °F 67% 30.03 in 10.0 mi ENE 8.1 mph - N/A   Clear
5:15 AM 14.0 °F 2.0 °F 5.0 °F 67% 30.02 in 10.0 mi ENE 9.2 mph - N/A   Clear
5:35 AM 14.0 °F 1.2 °F 5.0 °F 67% 30.02 in 10.0 mi East 10.4 mph - N/A   Clear
5:55 AM 14.0 °F 2.9 °F 6.8 °F 73% 30.03 in 10.0 mi ENE 8.1 mph - N/A   Clear
6:15 AM 12.2 °F -0.2 °F 5.0 °F 73% 30.03 in 10.0 mi ENE 9.2 mph - N/A   Clear
6:35 AM 12.2 °F -0.2 °F 6.8 °F 79% 30.02 in 10.0 mi ENE 9.2 mph 16.1 mph N/A   Clear
6:55 AM 12.2 °F -0.2 °F 6.8 °F 79% 30.02 in 10.0 mi ENE 9.2 mph - N/A   Clear
7:15 AM 12.2 °F -1.0 °F 6.8 °F 79% 30.01 in 10.0 mi East 10.4 mph - N/A   Clear
7:35 AM 12.2 °F -0.2 °F 8.6 °F 85% 30.00 in 10.0 mi East 9.2 mph 17.3 mph N/A   Clear
7:55 AM 12.2 °F -0.2 °F 8.6 °F 85% 30.00 in 10.0 mi East 9.2 mph - N/A   Clear
8:15 AM 12.2 °F -1.8 °F 8.6 °F 85% 30.00 in 10.0 mi East 11.5 mph - N/A   Clear
8:35 AM 14.0 °F 1.2 °F 8.6 °F 79% 29.99 in 10.0 mi East 10.4 mph 16.1 mph N/A   Clear
8:55 AM 14.0 °F 1.2 °F 8.6 °F 79% 30.00 in 10.0 mi East 10.4 mph 16.1 mph N/A   Clear
9:15 AM 15.8 °F 3.4 °F 8.6 °F 73% 30.00 in 10.0 mi East 10.4 mph - N/A   Clear
9:35 AM 17.6 °F 5.7 °F 10.4 °F 73% 30.01 in 10.0 mi East 10.4 mph - N/A   Clear
9:55 AM 17.6 °F 4.3 °F 8.6 °F 68% 30.00 in 10.0 mi East 12.7 mph 17.3 mph N/A   Clear
10:15 AM 19.4 °F 7.2 °F 8.6 °F 63% 29.99 in 10.0 mi ESE 11.5 mph - N/A   Clear
10:35 AM 21.2 °F 8.3 °F 8.6 °F 58% 29.99 in 10.0 mi ESE 13.8 mph - N/A   Clear
10:55 AM 21.2 °F 11.7 °F 10.4 °F 63% 29.99 in 10.0 mi East 8.1 mph - N/A   Clear
11:15 AM 23.0 °F 13.1 °F 10.4 °F 59% 29.97 in 10.0 mi East 9.2 mph - N/A   Clear
11:35 AM 24.8 °F 13.4 °F 10.4 °F 54% 29.98 in 10.0 mi East 12.7 mph - N/A   Clear
11:55 AM 26.6 °F 15.7 °F 10.4 °F 51% 29.98 in 10.0 mi ESE 12.7 mph - N/A   Clear
12:15 PM 26.6 °F 15.7 °F 12.2 °F 55% 29.97 in 10.0 mi SE 12.7 mph 17.3 mph N/A   Clear
12:35 PM 28.4 °F 18.5 °F 12.2 °F 51% 29.96 in 10.0 mi ESE 11.5 mph - N/A   Clear
12:55 PM 28.4 °F 17.5 °F 14.0 °F 55% 29.95 in 10.0 mi ESE 13.8 mph 17.3 mph N/A   Clear
1:15 PM 28.4 °F 18.5 °F 14.0 °F 55% 29.94 in 10.0 mi ESE 11.5 mph - N/A   Clear
1:35 PM 30.2 °F 22.6 °F 14.0 °F 51% 29.93 in 10.0 mi ESE 8.1 mph - N/A   Clear
1:55 PM 32.0 °F 24.8 °F 15.8 °F 51% 29.92 in 10.0 mi East 8.1 mph - N/A   Clear
2:15 PM 32.0 °F 24.2 °F 14.0 °F 48% 29.91 in 10.0 mi ESE 9.2 mph - N/A   Clear
2:35 PM 32.0 °F 28.7 °F 15.8 °F 51% 29.90 in 10.0 mi SE 3.5 mph - N/A   Clear
2:55 PM 32.0 °F 24.8 °F 15.8 °F 51% 29.89 in 10.0 mi ESE 8.1 mph - N/A   Clear
3:15 PM 32.0 °F 23.6 °F 17.6 °F 55% 29.88 in 10.0 mi ESE 10.4 mph - N/A   Clear
3:35 PM 32.0 °F 24.8 °F 17.6 °F 55% 29.87 in 10.0 mi ESE 8.1 mph 16.1 mph N/A   Clear
3:55 PM 33.8 °F 25.8 °F 17.6 °F 52% 29.87 in 10.0 mi ESE 10.4 mph - N/A   Clear
4:15 PM 33.8 °F 27.0 °F 17.6 °F 52% 29.86 in 10.0 mi ESE 8.1 mph - N/A   Clear
4:35 PM 33.8 °F 29.6 °F 19.4 °F 56% 29.87 in 10.0 mi East 4.6 mph - N/A   Clear
4:55 PM 33.8 °F 27.7 °F 19.4 °F 56% 29.87 in 10.0 mi East 6.9 mph - N/A   Clear
5:15 PM 33.8 °F 28.6 °F 19.4 °F 56% 29.87 in 10.0 mi SE 5.8 mph - N/A   Clear
5:35 PM 33.8 °F 27.7 °F 19.4 °F 56% 29.86 in 10.0 mi East 6.9 mph - N/A   Clear
5:55 PM 33.8 °F 27.0 °F 19.4 °F 56% 29.86 in 10.0 mi ESE 8.1 mph - N/A   Clear
6:15 PM 33.8 °F 27.0 °F 19.4 °F 56% 29.85 in 10.0 mi SE 8.1 mph - N/A   Clear
6:35 PM 33.8 °F 27.7 °F 19.4 °F 56% 29.86 in 10.0 mi SE 6.9 mph - N/A   Clear
6:55 PM 33.8 °F 27.0 °F 21.2 °F 60% 29.86 in 10.0 mi ESE 8.1 mph - N/A   Clear
7:15 PM 32.0 °F 24.2 °F 21.2 °F 64% 29.87 in 10.0 mi ESE 9.2 mph - N/A   Clear
7:35 PM 32.0 °F 24.2 °F 21.2 °F 64% 29.85 in 10.0 mi ESE 9.2 mph - N/A   Clear
7:55 PM 32.0 °F 26.4 °F 21.2 °F 64% 29.86 in 10.0 mi ESE 5.8 mph - N/A   Clear
8:15 PM 32.0 °F 26.4 °F 21.2 °F 64% 29.86 in 10.0 mi SE 5.8 mph - N/A   Clear
8:35 PM 30.2 °F 25.4 °F 23.0 °F 75% 29.87 in 10.0 mi ESE 4.6 mph - N/A   Clear
8:55 PM 30.2 °F 22.6 °F 23.0 °F 75% 29.87 in 10.0 mi ESE 8.1 mph - N/A   Clear
9:15 PM 28.4 °F 21.2 °F 23.0 °F 80% 29.87 in 10.0 mi East 6.9 mph - N/A   Clear
9:35 PM 28.4 °F 22.2 °F 21.2 °F 74% 29.88 in 10.0 mi East 5.8 mph - N/A   Clear
9:55 PM 28.4 °F 21.2 °F 23.0 °F 80% 29.89 in 10.0 mi East 6.9 mph - N/A   Clear
10:15 PM 28.4 °F 20.4 °F 23.0 °F 80% 29.88 in 10.0 mi ESE 8.1 mph - N/A   Clear
10:35 PM 28.4 °F 22.2 °F 23.0 °F 80% 29.89 in 10.0 mi East 5.8 mph - N/A   Clear
10:55 PM 28.4 °F 21.2 °F 23.0 °F 80% 29.89 in 10.0 mi ESE 6.9 mph - N/A   Clear
11:35 PM 28.4 °F 20.4 °F 23.0 °F 80% 29.89 in 10.0 mi ESE 8.1 mph - N/A   Clear
11:55 PM 28.4 °F 19.7 °F 23.0 °F 80% 29.88 in 10.0 mi ESE 9.2 mph - N/A   Clear